Location: Bern�tre
(50.1974°N, 2.0915°E)
Time: 09:17:40
(UTC+00:00)

ARIANE 5 R/B - Pass Details

Date: 18 September 2020
Orbit: 620 x 657 km, 98.2° (Epoch: 23 October)

Event Time Altitude Azimuth Distance (km) Brightness Sun altitude
Exits shadow 21:15:16 41° 288° (WNW) 917 3.7 -29.2°
Drops below altitude 10° 21:18:46 10° 334° (NNW) 2,003 6.0 -29.6°
Sets 21:21:03 0° 341° (NNW) 2,912 7.0 -29.9°
